[[{"header":{"parameterUnit":"m.s-1","parameterCategory":2,"la1":30.2991,"la2":30.254,"lo1":-89.0895,"lo2":-89.0444,"dy":0.0017,"dx":0.0017,"nx":28,"ny":28,"refTime":"2024-04-12T03:00:00:Z","depth":"0","parameterNumber":2,"parameterNumberName":"U-component_of_CURRENTS"},"data":[0,0,0,0,0,0,0,0,0,0,0,0,0,0,0,0,0,0,0,0,0,0,0,0,0,0,0,0,0,0,0,0,0,0,0,0,0,0,0,0,0,0,0,0,0,0,0,0,0,0,0,0,0,0,0,0,0,0,0.4054,0.4055,0,0.4108,0.4108,0.4108,0.414,0.4141,0.4142,0.4143,0.4135,0.4134,0.4133,0,0,0,0,0,0,0,0,0,0,0,0,0,0.4051,0.405,0.4053,0.4055,0.4056,0.4108,0.4108,0.4108,0.414,0.4141,0.4142,0.4143,0.4135,0.4134,0.4133,0,0,0,0,0,0,0,0,0,0,0,0,0,0.4066,0.4049,0.4053,0.4084,0.4088,0.4108,0.4108,0.4108,0.414,0.4141,0.4143,0.4144,0.4136,0.4134,0.4133,0.4098,0,0,0.4128,0.4128,0,0,0,0,0,0,0,0,0.4065,0.4065,0.4078,0.4082,0.4087,0.4126,0.4105,0.4104,0.414,0.4112,0.4143,0.4145,0.413,0.4129,0.4127,0.4098,0.4097,0.4128,0.4127,0.4127,0.4126,0,0,0,0,0,0,0,0.4064,0.4063,0.4067,0.408,0.4085,0.4122,0.4123,0.4105,0.4106,0.4115,0.4119,0.4137,0.4131,0.4128,0.4127,0.4097,0.4128,0.4127,0.4126,0.4125,0.4138,0.4139,0,0,0,0,0,0,0.4067,0.4062,0.4066,0.407,0.4088,0.4121,0.4123,0.4105,0.4108,0.4112,0.4136,0.4139,0.413,0.4128,0.4126,0.4177,0.4127,0.4125,0.4124,0.4137,0.4138,0.414,0,0,0,0,0,0,0.4066,0.4065,0.4064,0.4076,0.4079,0.412,0.41,0.4106,0.4115,0.4126,0.4128,0.4142,0.4131,0.4128,0.4126,0.4173,0.4124,0.4123,0.4135,0.4137,0.4139,0.4219,0,0,0,0,0,0,0.4065,0.4063,0.4043,0.4074,0.4079,0.4066,0.41,0.4106,0.4128,0.4132,0.4131,0.4132,0.4132,0.4129,0.4125,0.417,0.4122,0.4134,0.4136,0.4138,0.4215,0.4223,0.4231,0,0,0,0,0,0.4064,0.4006,0.404,0.4042,0.405,0.4066,0.4069,0.4099,0.4127,0.4115,0.4135,0.4132,0.4142,0.4127,0.4123,0.4169,0.4133,0.4135,0.4138,0.4211,0.4222,0.423,0,0,0,0,0,0,0.3939,0.4007,0.4044,0.3995,0.4038,0.4074,0.4058,0.41,0.4106,0.4108,0.4128,0.4128,0.4158,0.4137,0.4121,0.4181,0.4144,0.4146,0.4201,0.4211,0.4219,0.4307,0.4121,0,0,0,0,0,0.392,0.3923,0.3986,0.3945,0.3967,0.4022,0.4033,0.4063,0.4084,0.4088,0.4104,0.4124,0.4162,0.4163,0.4173,0.4178,0.4216,0.4211,0.4219,0.4226,0.4295,0.4374,0.4397,0.4149,0.4149,0.4149,0,0,0.385,0.3897,0.3887,0.3927,0.3956,0.4011,0.4027,0.4035,0.4099,0.4083,0.4135,0.4144,0.417,0.4204,0.4215,0.4192,0.4307,0.4229,0.4236,0.4303,0.4379,0.4404,0.4426,0.4151,0.415,0.415,0,0,0.3776,0.3766,0.379,0.384,0.3914,0.3958,0.3971,0.4025,0.4062,0.4106,0.4144,0.4195,0.4196,0.4265,0.4295,0.4347,0.4352,0.4325,0.4432,0.4505,0.4528,0.4548,0.4596,0.462,0.4322,0.4323,0.4323,0,0.3702,0.3756,0.3786,0.3852,0.3906,0.395,0.4011,0.405,0.4103,0.4154,0.4127,0.4244,0.4257,0.4381,0.4422,0.4377,0.4399,0.4392,0.4521,0.4542,0.4562,0.4605,0.4631,0.4327,0.4326,0.4326,0.4326,0,0.3711,0.3755,0.3756,0.3888,0.3929,0.3961,0.4059,0.4098,0.4148,0.4216,0.4319,0.4347,0.4426,0.444,0.4461,0.4612,0.4575,0.4526,0.4504,0.4592,0.4631,0.4656,0.4333,0.4331,0.433,0.4329,0,0,0.3577,0.3739,0.3755,0.3843,0.3962,0.3998,0.4097,0.4219,0.4308,0.4357,0.4487,0.4586,0.4601,0.4644,0.4659,0.4754,0.4905,0.4714,0.4716,0.4778,0.5055,0.4909,0.4922,0.4865,0.4871,0.4875,0.5014,0,0.3603,0.374,0.3818,0.394,0.4024,0.4105,0.4198,0.4304,0.4385,0.4497,0.4587,0.4684,0.4673,0.4712,0.4812,0.4901,0.4982,0.4873,0.495,0.4954,0.4827,0.4951,0.4722,0.4817,0.5039,0.5043,0.5046,0,0.365,0.3746,0.3875,0.4032,0.407,0.4138,0.4305,0.4394,0.4559,0.4619,0.4735,0.4783,0.4969,0.4909,0.5127,0.5048,0.5082,0.5132,0.5135,0.501,0.4858,0.4771,0.4855,0.4768,0.5085,0.5082,0.508,0,0.364,0.3796,0.3905,0.3961,0.4128,0.4193,0.4275,0.4431,0.4514,0.4703,0.477,0.4948,0.5033,0.5148,0.5245,0.5195,0.5458,0.5368,0.5267,0.5254,0.509,0.5052,0.5123,0.5519,0.5519,0.5518,0.5518,0,0.3687,0.3776,0.3903,0.3974,0.4082,0.4193,0.4311,0.4424,0.4571,0.468,0.4818,0.4922,0.5101,0.5239,0.5312,0.5385,0.5491,0.5353,0.5309,0.51,0.5065,0.5002,0.4953,0.5523,0.5522,0.5521,0.552,0,0.3695,0.3782,0.3905,0.4054,0.4091,0.4169,0.4298,0.4384,0.4528,0.4676,0.4735,0.4945,0.5117,0.5261,0.5461,0.5437,0.5385,0.5514,0.525,0.5172,0.4938,0.49,0.4775,0.4642,0.5434,0.5432,0.543,0,0.3728,0.3795,0.393,0.3979,0.4046,0.4149,0.4215,0.4354,0.4434,0.4672,0.474,0.4944,0.5061,0.5294,0.532,0.541,0.5289,0.5216,0.5085,0.4958,0.4886,0.4696,0.4581,0.4891,0.4885,0.488,0.4876,0,0.3789,0.3819,0.3909,0.3987,0.4055,0.412,0.4217,0.4257,0.4427,0.4527,0.4691,0.4808,0.4999,0.4989,0.5079,0.51,0.4955,0.5107,0.5066,0.4573,0.4288,0.4123,0.4759,0.4831,0.4835,0.4838,0.4841,0.4843,0.3813,0.3851,0.3935,0.3985,0.405,0.4075,0.406,0.4156,0.4226,0.4308,0.4519,0.458,0.4682,0.4761,0.4761,0.4611,0.461,0.4484,0.4484,0.4333,0.4096,0.4623,0.4572,0.4575,0.4577,0.458,0.4582,0,0.3817,0.3851,0.3921,0.3955,0.3943,0.4,0.4036,0.3967,0.3954,0.4095,0.4165,0.4206,0.4177,0.4245,0.4195,0.4057,0.3872,0.3962,0.3692,0.3638,0.4205,0.4073,0.38,0.38,0.38,0.3801,0.3801,0.3801,0.3827,0.3853,0.3851,0.3813,0.3813,0.3708,0.3668,0.3613,0.3639,0.359,0.358,0.3669,0.3872,0.3911,0.3791,0.3696,0.3469,0.325,0.331,0.3772,0.3821,0.3868,0.3738,0.3399,0.3398,0.2565,0.2559,0.2555]},{"header":{"parameterUnit":"m.s-1","parameterCategory":2,"la1":30.2991,"la2":30.254,"lo1":-89.0895,"lo2":-89.0444,"dy":0.0017,"dx":0.0017,"nx":28,"ny":28,"refTime":"2024-04-12T03:00:00:Z","depth":"0","parameterNumber":3,"parameterNumberName":"V-component_of_CURRENTS"},"data":[0,0,0,0,0,0,0,0,0,0,0,0,0,0,0,0,0,0,0,0,0,0,0,0,0,0,0,0,0,0,0,0,0,0,0,0,0,0,0,0,0,0,0,0,0,0,0,0,0,0,0,0,0,0,0,0,0,0,-0.0409,-0.041,0,-0.0467,-0.0468,-0.0468,-0.0503,-0.0503,-0.0503,-0.0504,-0.0561,-0.0562,-0.0563,0,0,0,0,0,0,0,0,0,0,0,0,0,-0.0407,-0.0406,-0.0409,-0.041,-0.0411,-0.0467,-0.0468,-0.0468,-0.0503,-0.0503,-0.0503,-0.0504,-0.056,-0.0562,-0.0563,0,0,0,0,0,0,0,0,0,0,0,0,0,-0.0429,-0.0406,-0.0409,-0.0436,-0.0439,-0.0467,-0.0468,-0.0469,-0.0503,-0.0503,-0.0503,-0.0504,-0.056,-0.0562,-0.0563,-0.0565,0,0,-0.0569,-0.057,0,0,0,0,0,0,0,0,-0.0428,-0.0429,-0.0431,-0.0434,-0.0438,-0.048,-0.0488,-0.0502,-0.0502,-0.0477,-0.0504,-0.0504,-0.0534,-0.0538,-0.0546,-0.0568,-0.057,-0.0569,-0.057,-0.0571,-0.0572,0,0,0,0,0,0,0,-0.0426,-0.0427,-0.043,-0.0432,-0.0436,-0.0473,-0.0475,-0.0491,-0.0501,-0.0479,-0.0482,-0.0491,-0.0536,-0.0544,-0.0547,-0.0571,-0.0569,-0.0571,-0.0572,-0.0573,-0.0595,-0.0594,0,0,0,0,0,0,-0.0417,-0.0425,-0.0429,-0.0432,-0.0436,-0.0472,-0.0475,-0.0464,-0.0501,-0.0507,-0.0491,-0.0493,-0.054,-0.0545,-0.0549,-0.0516,-0.0571,-0.0573,-0.0574,-0.0595,-0.0594,-0.0594,0,0,0,0,0,0,-0.0417,-0.0416,-0.0426,-0.0433,-0.0437,-0.0471,-0.0459,-0.0465,-0.0468,-0.051,-0.0516,-0.0487,-0.0541,-0.0547,-0.0555,-0.052,-0.0574,-0.0575,-0.0596,-0.0595,-0.0594,-0.0473,0,0,0,0,0,0,-0.0416,-0.0415,-0.0402,-0.0431,-0.0436,-0.0418,-0.0459,-0.0466,-0.0475,-0.0477,-0.0509,-0.0515,-0.0542,-0.0552,-0.0557,-0.0523,-0.0577,-0.0596,-0.0595,-0.0594,-0.0477,-0.0468,-0.046,0,0,0,0,0,-0.0415,-0.0381,-0.04,-0.0401,-0.0416,-0.0416,-0.0421,-0.0448,-0.0474,-0.0456,-0.0491,-0.0514,-0.055,-0.0553,-0.0559,-0.0525,-0.0597,-0.0596,-0.0594,-0.0481,-0.047,-0.046,0,0,0,0,0,0,-0.0342,-0.0382,-0.0404,-0.0375,-0.039,-0.0422,-0.0411,-0.044,-0.0454,-0.0461,-0.0505,-0.0513,-0.0507,-0.054,-0.0543,-0.0532,-0.0578,-0.0578,-0.049,-0.0479,-0.0471,-0.042,-0.0578,0,0,0,0,0,-0.0328,-0.0328,-0.036,-0.0333,-0.034,-0.0379,-0.0384,-0.0405,-0.0427,-0.0434,-0.0462,-0.0493,-0.0508,-0.0512,-0.0534,-0.0524,-0.0532,-0.051,-0.0501,-0.0493,-0.0458,-0.0455,-0.0441,-0.059,-0.059,-0.059,0,0,-0.0288,-0.0313,-0.0308,-0.0322,-0.0338,-0.0324,-0.0381,-0.0378,-0.0362,-0.0438,-0.0421,-0.0462,-0.0502,-0.049,-0.0491,-0.051,-0.0456,-0.0492,-0.0484,-0.0453,-0.0452,-0.0437,-0.0424,-0.0589,-0.0589,-0.0589,0,0,-0.0218,-0.0232,-0.0218,-0.0228,-0.0256,-0.0275,-0.0271,-0.0304,-0.0311,-0.0314,-0.0362,-0.0377,-0.0409,-0.0417,-0.0429,-0.0386,-0.0412,-0.0404,-0.0308,-0.0305,-0.0292,-0.028,-0.0263,-0.0251,-0.0395,-0.0395,-0.0395,0,-0.017,-0.0156,-0.0206,-0.0194,-0.0186,-0.0247,-0.0211,-0.0224,-0.0254,-0.0238,-0.0292,-0.0318,-0.0365,-0.0327,-0.0321,-0.0359,-0.0361,-0.0341,-0.0289,-0.0278,-0.0268,-0.0254,-0.0242,-0.0389,-0.039,-0.039,-0.0391,0,-0.0105,-0.0087,-0.0069,-0.008,-0.0072,-0.0049,-0.0077,-0.0068,-0.0101,-0.0112,-0.0097,-0.0169,-0.0178,-0.0204,-0.0251,-0.0198,-0.0222,-0.0279,-0.0305,-0.0245,-0.0235,-0.0225,-0.038,-0.0382,-0.0384,-0.0386,0,0,-0.0013,-0.0024,-0.0017,0.0006,-0.0011,0.0013,0.0046,0.0076,0.0126,0.0071,0.0135,0.0072,0.0027,0.0009,-0.0058,-0.0059,-0.0012,-0.013,-0.0133,-0.0092,0.0016,-0.0023,-0.0016,-0.0058,-0.0056,-0.0054,-0.0002,0,0.0056,0.0106,0.0082,0.0162,0.0194,0.0169,0.0221,0.024,0.0235,0.0281,0.0217,0.0238,0.0109,0.0107,0.0082,0.0017,0.002,-0.0019,-0.0067,-0.0067,-0.0092,-0.0004,-0.002,0.0024,0.0008,0.001,0.0011,0,0.0119,0.0146,0.0227,0.029,0.0308,0.0355,0.0442,0.0476,0.0517,0.0516,0.0511,0.0453,0.0443,0.0313,0.025,0.0231,0.0142,0.0081,0.008,0.0016,-0.0086,-0.0044,0.0043,-0.0148,0.0026,0.0025,0.0024,0,0.0194,0.0254,0.0328,0.0345,0.0404,0.0463,0.0507,0.0563,0.0628,0.0675,0.0727,0.0675,0.067,0.0555,0.0382,0.033,0.0319,0.0223,0.0116,0.0112,0.0078,0.0067,-0.0004,0.02,0.02,0.02,0.02,0,0.0268,0.0331,0.0377,0.042,0.0554,0.056,0.0705,0.074,0.0821,0.094,0.0853,0.0925,0.073,0.0673,0.049,0.035,0.0395,0.0176,0.0136,0.0117,0.011,-0.0079,-0.0193,0.0202,0.0201,0.0201,0.02,0,0.0339,0.0356,0.0456,0.0544,0.0589,0.069,0.083,0.0932,0.0988,0.1139,0.1164,0.1145,0.1069,0.0864,0.0702,0.0513,0.0258,0.0297,0.0293,0.0252,-0.0049,-0.0156,-0.0245,-0.0328,0.0209,0.0209,0.0208,0,0.0378,0.043,0.0555,0.0639,0.069,0.083,0.0937,0.1017,0.1128,0.128,0.1369,0.1348,0.1359,0.1108,0.0763,0.0483,0.027,0.0284,0.0167,-0.0025,-0.0173,-0.0259,-0.0329,0.0174,0.0174,0.0173,0.0173,0,0.0469,0.0509,0.06,0.0756,0.0885,0.1027,0.1179,0.1289,0.1406,0.1542,0.1699,0.173,0.1486,0.1201,0.0797,0.0574,0.0142,0.0264,0.007,-0.018,-0.0279,-0.0393,0.01,0.0168,0.0169,0.0169,0.0169,0.0169,0.0553,0.0637,0.0748,0.0902,0.104,0.1201,0.1323,0.149,0.1684,0.1883,0.1918,0.2009,0.1597,0.1041,0.0707,0.0099,0.0094,-0.0096,-0.0195,-0.0254,-0.0374,0.0119,0.0123,0.0123,0.0123,0.0123,0.0123,0,0.0666,0.0748,0.0886,0.1059,0.1197,0.1251,0.1469,0.1594,0.1821,0.2031,0.2165,0.2052,0.1523,0.0969,0.0156,-0.0276,-0.0442,-0.0506,-0.0639,-0.0681,-0.0229,-0.0275,-0.0363,-0.0363,-0.0363,-0.0363,-0.0363,-0.0362,0.0733,0.0876,0.093,0.1155,0.1267,0.1445,0.156,0.1753,0.1933,0.2182,0.2279,0.2326,0.1947,0.0513,-0.0477,-0.0711,-0.0988,-0.1067,-0.1192,-0.0916,-0.0886,-0.0857,-0.0927,-0.1151,-0.1152,-0.1606,-0.1611,-0.1614]}],[{"header":{"parameterUnit":"m.s-1","parameterCategory":2,"la1":30.2991,"la2":30.254,"lo1":-89.0895,"lo2":-89.0444,"dy":0.0017,"dx":0.0017,"nx":28,"ny":28,"refTime":"2024-04-12T03:00:00:Z","depth":"2","parameterNumber":2,"parameterNumberName":"U-component_of_CURRENTS"},"data":[0,0,0,0,0,0,0,0,0,0,0,0,0,0,0,0,0,0,0,0,0,0,0,0,0,0,0,0,0,0,0,0,0,0,0,0,0,0,0,0,0,0,0,0,0,0,0,0,0,0,0,0,0,0,0,0,0,0,0.2946,0.2946,0,0.2957,0.2957,0.2957,0.3019,0.3021,0.3022,0.3023,0.3079,0.3079,0.308,0,0,0,0,0,0,0,0,0,0,0,0,0,0.2897,0.2899,0.2946,0.2946,0.2946,0.2957,0.2957,0.2957,0.3019,0.3021,0.3022,0.3024,0.3079,0.3079,0.308,0,0,0,0,0,0,0,0,0,0,0,0,0,0.2917,0.2899,0.2946,0.2976,0.2979,0.2956,0.2957,0.2957,0.3019,0.3021,0.3023,0.3024,0.3079,0.3079,0.308,0.3045,0,0,0.3081,0.3081,0,0,0,0,0,0,0,0,0.2916,0.2919,0.2972,0.2974,0.2977,0.2986,0.296,0.2988,0.3018,0.3007,0.3023,0.3025,0.3049,0.3052,0.3053,0.3047,0.305,0.3081,0.3082,0.3082,0.3082,0,0,0,0,0,0,0,0.2914,0.2918,0.2953,0.2972,0.2975,0.296,0.2966,0.2965,0.302,0.3008,0.3012,0.3008,0.3052,0.3052,0.3055,0.3051,0.3081,0.3082,0.3082,0.3082,0.3142,0.3143,0,0,0,0,0,0,0.291,0.2917,0.2953,0.2953,0.2947,0.296,0.2967,0.2984,0.3019,0.3025,0.3006,0.3011,0.3051,0.3054,0.3057,0.3151,0.3082,0.3082,0.3082,0.314,0.3142,0.3143,0,0,0,0,0,0,0.291,0.2914,0.2952,0.2932,0.2936,0.2959,0.2977,0.2983,0.3019,0.3017,0.3025,0.3041,0.3052,0.3056,0.3096,0.3149,0.3082,0.3083,0.3139,0.3141,0.3143,0.3253,0,0,0,0,0,0,0.2908,0.2914,0.2926,0.2933,0.2937,0.2975,0.2975,0.2982,0.301,0.3017,0.3048,0.3053,0.3054,0.3096,0.3097,0.3148,0.3083,0.3137,0.314,0.3142,0.3248,0.3259,0.3268,0,0,0,0,0,0.2907,0.2903,0.2927,0.2931,0.2953,0.2976,0.2979,0.3001,0.301,0.3039,0.3059,0.3054,0.3112,0.3097,0.3098,0.3151,0.3136,0.3139,0.3142,0.3243,0.3257,0.3268,0,0,0,0,0,0,0.2882,0.2909,0.2935,0.2942,0.2979,0.2987,0.2995,0.3015,0.305,0.3057,0.3067,0.3074,0.3136,0.3114,0.3097,0.3172,0.3124,0.3128,0.3201,0.3213,0.3223,0.3271,0.3084,0,0,0,0,0,0.2883,0.2895,0.2931,0.294,0.296,0.2987,0.2997,0.302,0.3044,0.3063,0.3082,0.31,0.3138,0.3155,0.3173,0.3201,0.3211,0.3235,0.3245,0.3253,0.3291,0.335,0.337,0.3153,0.3153,0.3153,0,0,0.2868,0.2888,0.2892,0.2936,0.296,0.3006,0.3,0.3027,0.3076,0.3059,0.3123,0.314,0.3155,0.3208,0.3231,0.3202,0.3314,0.3257,0.3265,0.3299,0.3356,0.3377,0.3396,0.3155,0.3155,0.3154,0,0,0.2851,0.2878,0.2894,0.2935,0.2982,0.3011,0.3032,0.3069,0.3105,0.3158,0.3172,0.3244,0.3251,0.331,0.3332,0.3406,0.3372,0.3375,0.3462,0.3518,0.3538,0.3555,0.3575,0.3594,0.3372,0.3373,0.3373,0,0.2838,0.2883,0.2902,0.2945,0.2982,0.3027,0.3077,0.3117,0.3164,0.3196,0.3196,0.3281,0.3326,0.3414,0.3464,0.3441,0.3426,0.3419,0.3536,0.3553,0.3569,0.3586,0.3604,0.3378,0.3378,0.3377,0.3376,0,0.2854,0.2903,0.2917,0.3003,0.3039,0.3088,0.3153,0.3207,0.325,0.3284,0.3373,0.3428,0.349,0.3511,0.3529,0.3648,0.3585,0.355,0.3513,0.3598,0.3609,0.3627,0.3386,0.3384,0.3383,0.3381,0,0,0.281,0.2912,0.2924,0.2982,0.3083,0.3113,0.3207,0.33,0.337,0.3419,0.3511,0.3619,0.3639,0.367,0.3686,0.3755,0.3892,0.3705,0.3705,0.374,0.397,0.3836,0.3841,0.3847,0.3851,0.3854,0.3925,0,0.284,0.2921,0.297,0.307,0.313,0.3209,0.3298,0.3377,0.3447,0.3544,0.3614,0.3708,0.3693,0.3751,0.3819,0.3894,0.3944,0.3874,0.387,0.3871,0.3755,0.3861,0.3574,0.3604,0.3942,0.3945,0.3947,0,0.2862,0.292,0.3015,0.3135,0.3169,0.3244,0.3389,0.347,0.3605,0.3662,0.3743,0.3783,0.394,0.3905,0.4046,0.3981,0.4001,0.4027,0.4028,0.3888,0.3772,0.3576,0.3623,0.3976,0.3974,0.3972,0.397,0,0.2835,0.2953,0.3032,0.3076,0.3219,0.3291,0.338,0.351,0.3587,0.3753,0.3818,0.3935,0.403,0.4086,0.4155,0.411,0.4269,0.4208,0.4084,0.4072,0.3827,0.3787,0.4297,0.4297,0.4296,0.4296,0.4296,0,0.2862,0.2922,0.3036,0.3088,0.3192,0.3293,0.3418,0.3525,0.3681,0.3764,0.3879,0.3953,0.408,0.4158,0.4195,0.4201,0.4297,0.4141,0.4104,0.385,0.3813,0.4131,0.4111,0.4299,0.4298,0.4298,0.4297,0,0.2842,0.291,0.3004,0.3149,0.3189,0.3271,0.3427,0.3516,0.3672,0.3793,0.3857,0.4012,0.411,0.4178,0.4299,0.4242,0.4283,0.424,0.3921,0.3845,0.4032,0.4016,0.4133,0.4129,0.4126,0.4124,0.4122,0,0.2842,0.2894,0.3024,0.3067,0.3145,0.3261,0.3342,0.3505,0.3581,0.3792,0.384,0.3989,0.4025,0.4136,0.4122,0.4137,0.4207,0.3837,0.3728,0.4075,0.4027,0.4016,0.4005,0.3438,0.343,0.3424,0.3419,0,0.2846,0.2898,0.2974,0.3066,0.3145,0.3203,0.3322,0.3362,0.354,0.3621,0.3717,0.378,0.3888,0.3771,0.3799,0.3766,0.3823,0.3706,0.4187,0.3515,0.3422,0.3374,0.3386,0.3364,0.337,0.3374,0.3377,0.3379,0.2851,0.2889,0.2979,0.3044,0.3109,0.3118,0.3106,0.3196,0.3245,0.3307,0.3476,0.3463,0.3522,0.341,0.3317,0.326,0.351,0.3351,0.3369,0.3395,0.3293,0.3199,0.3079,0.3082,0.3086,0.3088,0.3091,0,0.2827,0.2876,0.2939,0.2975,0.2956,0.3041,0.3058,0.2981,0.2923,0.3044,0.3073,0.2862,0.2802,0.2867,0.2704,0.2698,0.2672,0.2576,0.2521,0.258,0.2631,0.2488,0.2062,0.2058,0.2055,0.2051,0,0,0.2829,0.2842,0.2839,0.2771,0.2801,0.2702,0.2658,0.2575,0.2576,0.2487,0.2478,0.2692,0.2802,0.2397,0.2348,0.2172,0.2351,0.2088,0.2926,0.2922,0.2968,0.3104,0.2954,0,0,0,0,0]},{"header":{"parameterUnit":"m.s-1","parameterCategory":2,"la1":30.2991,"la2":30.254,"lo1":-89.0895,"lo2":-89.0444,"dy":0.0017,"dx":0.0017,"nx":28,"ny":28,"refTime":"2024-04-12T03:00:00:Z","depth":"2","parameterNumber":3,"parameterNumberName":"V-component_of_CURRENTS"},"data":[0,0,0,0,0,0,0,0,0,0,0,0,0,0,0,0,0,0,0,0,0,0,0,0,0,0,0,0,0,0,0,0,0,0,0,0,0,0,0,0,0,0,0,0,0,0,0,0,0,0,0,0,0,0,0,0,0,0,0.0071,0.0071,0,0.005,0.005,0.005,0.0029,0.0029,0.0029,0.0028,-0.0022,-0.0023,-0.0024,0,0,0,0,0,0,0,0,0,0,0,0,0,0.0097,0.0097,0.0072,0.0071,0.0071,0.005,0.005,0.005,0.0029,0.0029,0.0029,0.0028,-0.0021,-0.0023,-0.0024,0,0,0,0,0,0,0,0,0,0,0,0,0,0.0082,0.0097,0.0072,0.0058,0.0057,0.005,0.005,0.0049,0.0029,0.0029,0.0029,0.0028,-0.0021,-0.0022,-0.0024,-0.0027,0,0,-0.0029,-0.003,0,0,0,0,0,0,0,0,0.0083,0.0081,0.0061,0.0059,0.0058,0.0042,0.0041,0.0023,0.0029,0.004,0.0028,0.0028,-0.0003,-0.0006,-0.0009,-0.0029,-0.0032,-0.0029,-0.003,-0.0031,-0.0032,0,0,0,0,0,0,0,0.0084,0.0082,0.0063,0.006,0.0059,0.0055,0.0052,0.0037,0.002,0.0039,0.0037,0.0035,-0.0004,-0.0007,-0.001,-0.0032,-0.0029,-0.0031,-0.0032,-0.0032,-0.0063,-0.0063,0,0,0,0,0,0,0.0087,0.0083,0.0064,0.0062,0.007,0.0054,0.0051,0.0047,0.0021,0.0017,0.0036,0.0034,-0.0004,-0.0008,-0.0012,-0.0002,-0.0031,-0.0033,-0.0034,-0.0063,-0.0063,-0.0063,0,0,0,0,0,0,0.0088,0.0085,0.0064,0.0072,0.0069,0.0054,0.005,0.0047,0.004,0.0019,0.0014,0.0031,-0.0005,-0.001,-0.0024,-0.0005,-0.0033,-0.0035,-0.0064,-0.0063,-0.0063,0.0007,0,0,0,0,0,0,0.0088,0.0086,0.0084,0.0072,0.0069,0.0063,0.005,0.0047,0.004,0.0038,0.0014,0.0009,-0.0005,-0.0021,-0.0026,-0.0008,-0.0036,-0.0064,-0.0064,-0.0063,0.0005,0.001,0.0015,0,0,0,0,0,0.0089,0.009,0.0083,0.0081,0.0066,0.0063,0.0062,0.005,0.004,0.0041,0.0024,0.0009,-0.0022,-0.0023,-0.0028,-0.001,-0.0064,-0.0064,-0.0063,0.0003,0.0009,0.0014,0,0,0,0,0,0,0.0097,0.0088,0.008,0.0077,0.0071,0.006,0.0061,0.005,0.0037,0.0036,0.0011,0.0005,0.0,-0.002,-0.002,-0.002,-0.0045,-0.0046,0.0006,0.0012,0.0017,0.0056,-0.0038,0,0,0,0,0,0.0099,0.0099,0.0088,0.0086,0.0085,0.0072,0.0068,0.0062,0.005,0.0044,0.0028,0.001,-0.0001,-0.0007,-0.0023,-0.0023,-0.0047,-0.0017,-0.0012,-0.0007,0.0019,-0.0014,-0.0009,-0.0062,-0.0062,-0.0062,0,0,0.0103,0.0097,0.0097,0.0088,0.0084,0.0103,0.0069,0.007,0.0089,0.0041,0.0056,0.0024,0.0,0.0003,-0.0001,-0.0011,-0.0009,-0.0007,-0.0003,0.0022,-0.0013,-0.0008,-0.0003,-0.0061,-0.0062,-0.0062,0,0,0.0126,0.0105,0.0123,0.0124,0.0122,0.0119,0.012,0.011,0.0107,0.011,0.0084,0.0063,0.0046,0.0037,0.0029,0.0048,0.0015,0.0039,0.0102,0.0069,0.0073,0.0077,0.0042,0.0042,0.0045,0.0045,0.0045,0,0.0134,0.0155,0.0127,0.0151,0.0168,0.0131,0.0169,0.016,0.0148,0.0159,0.0124,0.0103,0.0068,0.0086,0.0092,0.0063,0.0038,0.0084,0.0077,0.008,0.0083,0.0046,0.0045,0.0049,0.0048,0.0048,0.0048,0,0.0179,0.02,0.0211,0.0236,0.0245,0.0266,0.026,0.0265,0.0249,0.0244,0.0243,0.0188,0.0183,0.0157,0.0133,0.0143,0.0117,0.0084,0.0068,0.0093,0.0051,0.0049,0.0054,0.0052,0.0051,0.0051,0,0,0.0203,0.0239,0.0247,0.0288,0.0297,0.0319,0.0346,0.0374,0.041,0.0364,0.0402,0.0351,0.0314,0.0303,0.0254,0.0222,0.0199,0.0172,0.0169,0.0149,0.013,0.0092,0.0086,0.0167,0.0167,0.0168,0.0089,0,0.0257,0.0333,0.0332,0.0416,0.0462,0.045,0.0491,0.0505,0.0496,0.0516,0.0448,0.0455,0.0372,0.0369,0.0322,0.024,0.02,0.0224,0.01,0.0097,0.007,0.0085,0.0117,0.0049,0.0087,0.0086,0.0086,0,0.0316,0.0364,0.0457,0.0538,0.0557,0.0601,0.0672,0.07,0.0704,0.0696,0.0672,0.0614,0.0571,0.0483,0.0357,0.0379,0.027,0.0187,0.0181,0.0129,0.0057,0.003,0.0043,0.0082,0.0082,0.0083,0.0083,0,0.0378,0.0459,0.0545,0.057,0.0645,0.0695,0.0734,0.0763,0.0812,0.0812,0.0836,0.0757,0.0728,0.0589,0.0404,0.0388,0.0251,0.0201,0.0062,0.0057,0.0054,0.0049,0.0109,0.0109,0.011,0.011,0.011,0,0.045,0.052,0.0588,0.064,0.0762,0.0778,0.0893,0.0917,0.096,0.1035,0.0937,0.096,0.0753,0.0639,0.0458,0.0261,0.0286,0.0089,0.0042,0.0076,0.0074,0.0081,0.0078,0.0107,0.0108,0.0108,0.0109,0,0.0514,0.055,0.0662,0.0759,0.0799,0.089,0.1006,0.1081,0.1106,0.1195,0.1202,0.1122,0.0975,0.0746,0.0516,0.0342,0.0147,0.0062,0.0114,0.0075,-0.0039,-0.0037,-0.0083,-0.0085,-0.0086,-0.0087,-0.0088,0,0.0558,0.062,0.0754,0.0832,0.0886,0.1009,0.1098,0.1157,0.1236,0.1297,0.1347,0.1236,0.1163,0.0806,0.0486,0.017,0.0125,-0.0009,-0.0039,-0.0014,-0.0055,-0.005,-0.0046,-0.0026,-0.0026,-0.0026,-0.0027,0,0.0648,0.069,0.0784,0.0937,0.1051,0.1177,0.13,0.1384,0.1456,0.1516,0.1557,0.1502,0.1179,0.086,0.0432,0.0222,0.0044,-0.0028,-0.0005,0.0018,0.0034,-0.0005,-0.0001,-0.003,-0.003,-0.0029,-0.0029,-0.0029,0.0723,0.08,0.0914,0.106,0.1182,0.1321,0.1421,0.1534,0.1655,0.1735,0.1692,0.161,0.128,0.0722,0.0364,-0.0002,0.0014,-0.0115,-0.0111,-0.0107,-0.0087,-0.0075,-0.0155,-0.0155,-0.0156,-0.0156,-0.0156,0,0.0824,0.0899,0.1028,0.1192,0.1307,0.1365,0.1538,0.1614,0.1738,0.1808,0.1814,0.1491,0.1147,0.0765,0.0221,-0.0103,-0.0117,-0.0204,-0.0146,-0.014,-0.0135,-0.0114,-0.0191,-0.0192,-0.0193,-0.0194,0,0,0.0882,0.1013,0.1063,0.1259,0.1363,0.1513,0.1605,0.1711,0.1785,0.1816,0.1779,0.1702,0.1256,0.0857,0.0423,0.0112,0.0059,0.0051,0.0116,0.0242,0.0251,-0.0046,-0.0002,0,0,0,0,0]}],[{"header":{"parameterUnit":"m.s-1","parameterCategory":2,"la1":30.2991,"la2":30.254,"lo1":-89.0895,"lo2":-89.0444,"dy":0.0017,"dx":0.0017,"nx":28,"ny":28,"refTime":"2024-04-12T03:00:00:Z","depth":"4","parameterNumber":2,"parameterNumberName":"U-component_of_CURRENTS"},"data":[0,0,0,0,0,0,0,0,0,0,0,0,0,0,0,0,0,0,0,0,0,0,0,0,0,0,0,0,0,0,0,0,0,0,0,0,0,0,0,0,0,0,0,0,0,0,0,0,0,0,0,0,0,0,0,0,0,0,0.1766,0.1766,0,0.1794,0.1794,0.1794,0.1848,0.185,0.1851,0.1853,0.1932,0.1933,0.1934,0,0,0,0,0,0,0,0,0,0,0,0,0,0.1706,0.1707,0.1766,0.1766,0.1767,0.1794,0.1794,0.1794,0.1848,0.185,0.1852,0.1853,0.1932,0.1933,0.1934,0,0,0,0,0,0,0,0,0,0,0,0,0,0.1729,0.1707,0.1765,0.18,0.1804,0.1794,0.1794,0.1794,0.1848,0.185,0.1852,0.1854,0.1932,0.1933,0.1934,0.1898,0,0,0.1938,0.1938,0,0,0,0,0,0,0,0,0.1728,0.1731,0.1795,0.1798,0.1802,0.1823,0.1802,0.1832,0.1847,0.1827,0.1853,0.1855,0.1902,0.1905,0.1899,0.1902,0.1905,0.1938,0.1938,0.1939,0.1939,0,0,0,0,0,0,0,0.1726,0.173,0.1773,0.1795,0.18,0.1797,0.1802,0.1807,0.185,0.1829,0.1834,0.1843,0.1904,0.1898,0.1902,0.1906,0.1938,0.1939,0.1939,0.194,0.2021,0.2022,0,0,0,0,0,0,0.1731,0.1728,0.1772,0.1774,0.1774,0.1796,0.1803,0.1811,0.1849,0.1857,0.1841,0.1845,0.1895,0.19,0.1905,0.1991,0.1939,0.194,0.1941,0.2019,0.2021,0.2023,0,0,0,0,0,0,0.173,0.1735,0.1771,0.1755,0.176,0.1796,0.1804,0.1811,0.1848,0.1858,0.1867,0.1878,0.1897,0.1903,0.1953,0.199,0.194,0.1942,0.2018,0.202,0.2022,0.2083,0,0,0,0,0,0,0.1728,0.1734,0.1757,0.1755,0.1761,0.1791,0.1803,0.181,0.185,0.1857,0.1892,0.1899,0.1899,0.1952,0.1954,0.1991,0.1942,0.2016,0.2019,0.2021,0.2079,0.2087,0.2093,0,0,0,0,0,0.1725,0.1738,0.1758,0.1764,0.1787,0.1792,0.1795,0.1824,0.185,0.1866,0.1901,0.19,0.1971,0.1953,0.1956,0.1994,0.2014,0.2018,0.2021,0.2076,0.2085,0.2093,0,0,0,0,0,0,0.1725,0.1745,0.1767,0.1787,0.1805,0.1804,0.1825,0.1843,0.1879,0.1904,0.1914,0.1923,0.1985,0.1976,0.1957,0.2026,0.1994,0.1998,0.2034,0.2043,0.205,0.2059,0.1943,0,0,0,0,0,0.1735,0.1757,0.177,0.1795,0.1804,0.1822,0.1837,0.1858,0.1881,0.1901,0.1929,0.196,0.1989,0.2009,0.203,0.2058,0.2073,0.2086,0.2094,0.21,0.211,0.2175,0.2189,0.2033,0.2033,0.2033,0,0,0.1746,0.176,0.1776,0.1798,0.1814,0.1825,0.1837,0.1868,0.1898,0.1903,0.1965,0.1992,0.2005,0.2049,0.2075,0.2053,0.215,0.2104,0.2109,0.2116,0.218,0.2195,0.2209,0.2036,0.2035,0.2035,0,0,0.1752,0.1788,0.1799,0.1815,0.1849,0.1856,0.1875,0.1899,0.1938,0.1987,0.2009,0.206,0.2095,0.2115,0.2126,0.2182,0.2192,0.2194,0.2233,0.2297,0.2311,0.2323,0.2352,0.2366,0.2191,0.2191,0.2191,0,0.177,0.1781,0.1805,0.1815,0.1838,0.1874,0.1889,0.192,0.1967,0.2012,0.2024,0.2113,0.2125,0.218,0.2204,0.2201,0.2231,0.2198,0.2308,0.232,0.2332,0.2359,0.2374,0.2194,0.2194,0.2194,0.2193,0,0.176,0.1793,0.1802,0.183,0.1856,0.188,0.1921,0.197,0.2026,0.2067,0.2162,0.2185,0.2244,0.225,0.2246,0.2331,0.2324,0.2316,0.2286,0.2351,0.2375,0.239,0.2199,0.2198,0.2197,0.2196,0,0,0.1744,0.1788,0.1796,0.1821,0.1873,0.1886,0.1952,0.2016,0.2087,0.2149,0.2236,0.2286,0.2332,0.2348,0.2356,0.2396,0.2496,0.2397,0.2399,0.2427,0.2631,0.2454,0.2453,0.2521,0.2524,0.2527,0.2611,0,0.1737,0.1752,0.1785,0.1828,0.1842,0.191,0.1973,0.205,0.2131,0.2226,0.2285,0.2374,0.236,0.241,0.2454,0.2491,0.254,0.2473,0.2563,0.2564,0.2402,0.2466,0.2536,0.2622,0.2625,0.2628,0.263,0,0.1708,0.1729,0.1758,0.1842,0.186,0.1905,0.2024,0.2096,0.2236,0.2306,0.2405,0.2464,0.2547,0.2528,0.2632,0.2599,0.2633,0.2645,0.2649,0.2473,0.2415,0.2546,0.2656,0.2654,0.2652,0.265,0.2648,0,0.1657,0.1714,0.1742,0.1764,0.1857,0.1918,0.1998,0.2136,0.2223,0.2382,0.2457,0.2564,0.2642,0.2697,0.2733,0.2712,0.2831,0.2802,0.267,0.2657,0.2764,0.275,0.2894,0.2894,0.2893,0.2893,0.2893,0,0.1613,0.1644,0.1731,0.1746,0.1826,0.1917,0.2038,0.2135,0.2293,0.2394,0.2516,0.2586,0.2699,0.2771,0.2782,0.2761,0.2882,0.2688,0.2675,0.2784,0.2772,0.2774,0.2759,0.2896,0.2896,0.2895,0.2894,0,0.1541,0.1593,0.1642,0.1754,0.1802,0.1874,0.2053,0.2135,0.23,0.2431,0.249,0.265,0.2739,0.2806,0.2899,0.2812,0.2811,0.2781,0.2891,0.2881,0.2583,0.257,0.2635,0.263,0.2625,0.2621,0.2618,0,0.1492,0.1506,0.1636,0.1682,0.1742,0.1864,0.1949,0.2125,0.2213,0.2434,0.2479,0.2639,0.2717,0.2697,0.2781,0.2788,0.2759,0.2731,0.2651,0.2579,0.2561,0.2555,0.2549,0.2611,0.261,0.2609,0.2607,0,0.1407,0.1475,0.1527,0.1623,0.1712,0.1788,0.1928,0.1972,0.2172,0.2329,0.241,0.2456,0.2554,0.26,0.2632,0.2628,0.2722,0.2683,0.2691,0.2616,0.2551,0.2536,0.2535,0.2592,0.2594,0.2595,0.2596,0,0.1361,0.1394,0.148,0.1553,0.1654,0.1688,0.1765,0.1862,0.1965,0.2205,0.2226,0.238,0.2536,0.252,0.2541,0.2528,0.2486,0.2383,0.2407,0.2425,0.2313,0.2197,0.2128,0,0,0,0,0,0.1302,0.1332,0.1397,0.147,0.1557,0.1606,0.174,0.1819,0.2002,0.2007,0.2114,0.219,0.2235,0.2321,0.2265,0.2441,0.2488,0.2363,0.2379,0.2504,0.2523,0.2407,0,0,0,0,0,0,0.1269,0.1327,0.1362,0.1372,0.1405,0.1476,0.1547,0.1657,0.1679,0.1872,0.192,0.2057,0.2147,0.2255,0.2228,0.225,0.2211,0.2467,0.2461,0.2494,0.2511,0.2525,0.2413,0,0,0,0,0]},{"header":{"parameterUnit":"m.s-1","parameterCategory":2,"la1":30.2991,"la2":30.254,"lo1":-89.0895,"lo2":-89.0444,"dy":0.0017,"dx":0.0017,"nx":28,"ny":28,"refTime":"2024-04-12T03:00:00:Z","depth":"4","parameterNumber":3,"parameterNumberName":"V-component_of_CURRENTS"},"data":[0,0,0,0,0,0,0,0,0,0,0,0,0,0,0,0,0,0,0,0,0,0,0,0,0,0,0,0,0,0,0,0,0,0,0,0,0,0,0,0,0,0,0,0,0,0,0,0,0,0,0,0,0,0,0,0,0,0,0.0158,0.0158,0,0.0154,0.0154,0.0154,0.0159,0.0159,0.0159,0.0159,0.0143,0.0143,0.0142,0,0,0,0,0,0,0,0,0,0,0,0,0,0.0166,0.0166,0.0158,0.0158,0.0158,0.0154,0.0154,0.0154,0.0159,0.0159,0.0159,0.0159,0.0143,0.0143,0.0142,0,0,0,0,0,0,0,0,0,0,0,0,0,0.0164,0.0166,0.0158,0.0158,0.0158,0.0154,0.0154,0.0154,0.0159,0.0159,0.0159,0.0159,0.0143,0.0143,0.0142,0.0138,0,0,0.014,0.014,0,0,0,0,0,0,0,0,0.0164,0.0164,0.0158,0.0158,0.0158,0.0156,0.0151,0.0148,0.0159,0.016,0.0159,0.0159,0.0145,0.0144,0.0146,0.0137,0.0136,0.014,0.014,0.0139,0.0139,0,0,0,0,0,0,0,0.0164,0.0164,0.0158,0.0158,0.0158,0.0157,0.0157,0.0151,0.0154,0.016,0.016,0.0157,0.0145,0.0147,0.0146,0.0136,0.014,0.014,0.0139,0.0139,0.0134,0.0134,0,0,0,0,0,0,0.0161,0.0164,0.0158,0.0158,0.0159,0.0157,0.0157,0.0158,0.0154,0.0153,0.0157,0.0157,0.0148,0.0146,0.0145,0.0156,0.0139,0.0139,0.0138,0.0133,0.0134,0.0134,0,0,0,0,0,0,0.0162,0.0161,0.0158,0.0159,0.0159,0.0157,0.0157,0.0157,0.0162,0.0151,0.0151,0.0161,0.0148,0.0146,0.0148,0.0155,0.0139,0.0138,0.0133,0.0133,0.0134,0.0168,0,0,0,0,0,0,0.0162,0.0161,0.0163,0.0159,0.0159,0.0162,0.0157,0.0157,0.0159,0.0159,0.0155,0.0153,0.0148,0.0149,0.0147,0.0154,0.0137,0.0133,0.0133,0.0134,0.0166,0.0169,0.0172,0,0,0,0,0,0.0162,0.0161,0.0163,0.0163,0.016,0.0162,0.0162,0.0161,0.0159,0.0165,0.0163,0.0154,0.015,0.0149,0.0146,0.0153,0.0133,0.0133,0.0134,0.0165,0.0169,0.0172,0,0,0,0,0,0,0.0159,0.0161,0.0164,0.0162,0.0165,0.0162,0.0164,0.0163,0.0167,0.0169,0.0158,0.0157,0.0159,0.0151,0.0149,0.0152,0.0139,0.0139,0.0163,0.0167,0.0169,0.0175,0.0137,0,0,0,0,0,0.0161,0.0165,0.0166,0.0165,0.0168,0.0168,0.0168,0.0171,0.017,0.0172,0.0169,0.0164,0.0159,0.016,0.0154,0.0157,0.0125,0.0159,0.0162,0.0164,0.0167,0.0118,0.0116,0.0136,0.0136,0.0136,0,0,0.0159,0.016,0.0162,0.0166,0.0168,0.0188,0.0169,0.0174,0.0191,0.0169,0.0188,0.0173,0.0161,0.0167,0.0167,0.0162,0.0141,0.0165,0.0167,0.0169,0.0118,0.0116,0.0114,0.0136,0.0136,0.0136,0,0,0.0168,0.016,0.0177,0.0185,0.0193,0.0196,0.02,0.0204,0.0205,0.0218,0.0204,0.0192,0.0195,0.0183,0.0179,0.0191,0.0155,0.0191,0.0213,0.0165,0.0163,0.016,0.0114,0.0107,0.0195,0.0195,0.0195,0,0.0168,0.0192,0.018,0.0204,0.0218,0.0205,0.0236,0.0233,0.0238,0.0239,0.023,0.0213,0.0202,0.0195,0.0205,0.0196,0.0164,0.0203,0.0168,0.0165,0.0162,0.0115,0.0107,0.0197,0.0197,0.0197,0.0196,0,0.02,0.0222,0.023,0.0263,0.0273,0.0292,0.0294,0.0299,0.0296,0.0293,0.0281,0.0252,0.0243,0.0233,0.0228,0.0205,0.0186,0.0174,0.0159,0.0162,0.0112,0.0103,0.0199,0.0199,0.0198,0.0198,0,0,0.0202,0.0247,0.0254,0.0288,0.031,0.0324,0.0342,0.0358,0.037,0.0347,0.035,0.0324,0.0296,0.0287,0.0259,0.0218,0.0169,0.0195,0.0192,0.0149,0.0061,0.0065,0.0055,0.0149,0.0147,0.0146,0.0034,0,0.024,0.0303,0.0312,0.0374,0.0411,0.0407,0.0431,0.0436,0.0425,0.0421,0.0364,0.0359,0.032,0.0314,0.0263,0.0197,0.0148,0.0201,0.0066,0.0062,0.0064,0.0045,0.0142,0.0027,0.0025,0.0023,0.0022,0,0.0281,0.032,0.0393,0.0448,0.0462,0.0497,0.0527,0.0544,0.0522,0.051,0.047,0.0426,0.0366,0.033,0.0195,0.0231,0.0154,0.0089,0.0083,0.007,0.0049,0.0024,0.0006,0.0007,0.0008,0.0009,0.001,0,0.0311,0.0378,0.0442,0.0462,0.0518,0.0548,0.0575,0.0578,0.0596,0.0565,0.0564,0.0473,0.0439,0.0316,0.0188,0.0191,0.0029,0.0015,-0.0063,-0.0064,-0.0049,-0.0045,-0.0087,-0.0087,-0.0086,-0.0086,-0.0086,0,0.0356,0.0406,0.0466,0.0504,0.0579,0.0598,0.0661,0.0665,0.0671,0.0696,0.0616,0.0597,0.0435,0.0324,0.0194,0.0039,0.0029,-0.0065,-0.0094,-0.0031,-0.0024,-0.0056,-0.005,-0.009,-0.0089,-0.0089,-0.0088,0,0.0387,0.0426,0.0503,0.0574,0.0603,0.0658,0.0733,0.0766,0.0767,0.0789,0.0783,0.0689,0.0551,0.0373,0.0176,0.0065,-0.0094,-0.0147,-0.0067,-0.0089,-0.016,-0.0151,-0.025,-0.0251,-0.0252,-0.0252,-0.0253,0,0.0413,0.0457,0.0554,0.0604,0.0646,0.0727,0.0783,0.0817,0.0854,0.0843,0.0854,0.0738,0.0653,0.0375,0.0184,-0.008,-0.0111,-0.0203,-0.0185,-0.0159,-0.0178,-0.0168,-0.0159,-0.0254,-0.0254,-0.0254,-0.0254,0,0.0452,0.0487,0.0547,0.065,0.0727,0.0813,0.0894,0.0927,0.0959,0.0956,0.0917,0.0771,0.0615,0.0392,0.0188,-0.0001,-0.0152,-0.0211,-0.0211,-0.0195,-0.0165,-0.018,-0.0171,-0.0257,-0.0257,-0.0256,-0.0256,0,0.0479,0.0522,0.0598,0.0692,0.0786,0.0874,0.0914,0.0962,0.1,0.0991,0.0974,0.0803,0.0707,0.0432,0.0241,0.0057,0.001,-0.0056,-0.0065,-0.0064,0.0023,0.009,0.0048,0,0,0,0,0,0.0504,0.0553,0.0631,0.0735,0.0826,0.0887,0.0978,0.1006,0.1037,0.1024,0.1005,0.0863,0.0589,0.047,0.0288,0.0211,-0.0037,-0.0012,-0.0121,-0.0271,-0.0268,-0.0196,0,0,0,0,0,0,0.0518,0.0592,0.063,0.0753,0.0827,0.0933,0.0995,0.1015,0.1013,0.1012,0.0877,0.0812,0.0551,0.07,0.0285,0.0228,0.0131,-0.0135,-0.0139,-0.0272,-0.027,-0.0267,-0.0193,0,0,0,0,0]}]]